map of NDB home
NDB - Airport
Location
City:  Nouadhibou, Mauritania
Near (Alt.):Port-Étienne
Name:Nouadhibou International Airport
ICAO:GQPP
IATA:NDB

Details
Type:Airport (Aerodrome, Airfield)
Use:Public/Civil, International (customs port of entry)
Latitude:20°55'42"N (20.928333)
Longitude:17°01'52"W (-17.031110)
Elevation:10 ft (3 m)
Variation:5.77°W (WMM2015v2 magnetic declination)
0.15° annual change
Runways:1
Longest:7956 × 148 ft (2425 × 45 m), paved

Time
Time Zone:UTC+0
Local Time:

Weather
METAR:GQPP 041200Z 03015KT 8000 NSC 19/12 Q1017 NOSIG
TAF:GQPP 041100Z 0412/0512 36012KT 8000 NSC
BECMG 0508/0511 10015KT

Related Locations
Nearby:
Farthest:KOC: 12358 mi / 19889 km
Koumac, NC

Find:

   beyond  
but within

Other Information
Maps:
NOTAMs:
Links:
Sources:

  
  • flag of Mauritania
  

Sectional Chart

Flight Planning
at skyvector.com

Satellite Image

Google Maps Satellite view

 

Copyright © 2004-2019 Karl L. Swartz. All rights reserved.
The Great Circle Mapper name and logo are trademarks of the Great Circle Mapper.
All other trademarks mentioned herein belong to their respective owners.
Please see credits for attibutions and further copyright information.

  Follow gcmap on Facebook Follow gcmap on Twitter GCmap on LinkedIn

hCard Microformat

Geo Microformat